Location: D�rnast
(49.6426°N, 11.9755°E)
Time: 03:37:14
(UTC+00:00)

ISS - Pass Details

Date: 03 December 2021
Orbit: 413 x 422 km, 51.6° (Epoch: 29 January)

Event Time Altitude Azimuth Distance (km) Brightness Sun altitude
Rises 15:58:25 0° 282° (WNW) 2,389 1.0 -7.1°
Reaches altitude 10° 16:00:33 10° 286° (WNW) 1,520 -0.1 -7.4°
Maximum altitude 16:03:57 66° 8° (N) 469 -3.7 -7.9°
Drops below altitude 10° 16:07:20 10° 92° (E) 1,511 -1.5 -8.4°
Enters shadow 16:07:32 - 93° (E) 1,593 -1.4 -8.4°
